Date,TemperatureHighF,TemperatureAvgF,TemperatureLowF,DewpointHighF,DewpointAvgF,DewpointLowF,HumidityHigh,HumidityAvg,HumidityLow,PressureMaxIn,PressureMinIn,WindSpeedMaxMPH,WindSpeedAvgMPH,GustSpeedMaxMPH,PrecipitationSumIn
2013-8-1,85,75,69,73,69,66,100,84,62,0.00,40.00,6,4,13,0.02
2013-8-2,87,77,68,69,66,63,86,71,49,0.00,40.00,7,4,15,0.01
2013-8-3,85,79,74,74,71,68,89,76,68,0.00,40.00,4,2,7,0.00
2013-8-4,85,77,70,73,69,61,97,79,60,0.00,40.00,7,4,15,0.00
2013-8-5,86,76,65,68,63,58,83,65,43,0.00,40.00,7,4,14,0.00
2013-8-6,83,75,69,75,67,62,97,78,65,0.00,40.00,7,3,16,0.37
2013-8-7,80,73,70,77,71,69,100,96,87,0.00,40.00,8,5,14,0.72
2013-8-8,84,74,70,76,72,68,100,92,73,0.00,40.00,8,5,17,0.32
2013-8-9,87,77,72,76,73,69,100,88,65,0.00,40.00,6,5,14,0.32
2013-8-10,85,77,71,76,73,68,96,88,71,0.00,40.00,8,4,16,1.50
2013-8-11,83,75,71,75,72,69,100,91,73,0.00,40.00,5,4,9,0.43
2013-8-12,84,76,72,79,73,70,100,89,70,0.00,40.00,6,3,10,0.78
2013-8-13,87,75,70,76,69,-100,100,86,63,0.00,40.00,6,4,13,0.64
2013-8-14,78,71,67,68,64,57,96,79,59,0.00,40.00,7,5,16,0.07
2013-8-15,74,62,62,64,48,-100,87,71,61,0.00,40.00,10,5,17,0.00
2013-8-16,68,63,62,63,55,-100,93,82,76,0.00,40.00,8,5,14,0.00
2013-8-17,67,64,63,64,61,59,100,90,81,0.00,40.00,7,5,14,0.02
2013-8-18,72,66,63,70,64,-100,100,94,85,0.00,40.00,8,6,14,0.40
2013-8-19,80,67,66,72,59,-100,100,91,71,0.00,40.00,9,4,16,1.01
2013-8-20,80,72,68,72,67,-100,98,89,73,0.00,40.00,8,6,14,0.03
2013-8-21,82,74,71,74,71,70,99,91,76,0.00,40.00,9,5,13,0.00
2013-8-22,82,75,70,73,72,70,100,89,70,0.00,40.00,5,3,9,0.01
2013-8-23,87,78,70,73,70,66,98,79,56,0.00,40.00,6,3,12,0.01
2013-8-24,83,74,67,70,68,65,99,81,62,0.00,40.00,9,6,16,0.00
2013-8-25,82,73,67,67,60,-100,84,66,52,0.00,40.00,9,6,16,0.00
2013-8-26,81,74,66,64,60,57,77,63,53,0.00,40.00,7,3,12,0.00
2013-8-27,85,82,78,68,66,64,63,59,54,0.00,40.00,5,4,13,0.00
2013-8-28,87,82,76,73,71,68,83,69,59,0.00,40.00,4,2,10,0.00
2013-8-29,91,79,73,77,71,68,88,77,59,0.00,40.00,5,3,9,0.04
2013-8-30,84,76,71,76,71,67,97,84,71,0.00,40.00,7,4,14,0.73
2013-8-31,88,78,71,77,72,67,99,84,62,0.00,40.00,8,4,12,0.83